Location: Aldenham
(51.6667°N, 0.3500°W)
Time: 08:52:46
(UTC+00:00)

Altair - All Passes

Search period start: 16 February 2026 00:00
Search period end: 26 February 2026 00:00
Orbit: 1502 x 1682 km, 47.2° (Epoch: 14 February)

Date Brightness Start Highest point End Pass type
(mag) Time Alt. Az. Time Alt. Az. Time Alt. Az.
16 Feb - 03:52:01 10° S 03:58:54 24° SE 04:05:53 10° E visible
16 Feb - 05:53:07 10° SW 06:01:58 53° SSE 06:11:08 10° E visible
16 Feb - 07:56:46 10° W 08:06:03 69° S 08:15:42 10° E daylight
16 Feb - 10:01:04 10° W 10:10:10 53° SSW 10:19:37 10° SE daylight
16 Feb - 12:06:10 10° W 12:13:24 25° SW 12:20:49 10° S daylight
17 Feb - 03:27:17 10° S 03:33:50 22° SE 03:40:29 10° E visible
17 Feb - 05:28:02 10° SW 05:36:49 51° SSE 05:45:53 10° E visible
17 Feb - 07:31:36 10° WSW 07:40:50 69° S 07:50:27 10° E daylight
17 Feb - 09:35:52 10° W 09:44:59 55° SSW 09:54:27 10° SE daylight
17 Feb - 11:40:49 10° W 11:48:17 26° SW 11:55:58 10° S daylight
18 Feb - 03:02:36 10° S 03:08:46 20° SE 03:15:02 10° E visible
18 Feb - 05:02:58 10° SW 05:11:40 49° SSE 05:20:37 10° E visible
18 Feb - 07:06:25 10° WSW 07:15:37 69° S 07:25:12 10° E daylight
18 Feb - 09:10:40 10° W 09:19:48 57° SSW 09:29:17 10° SE daylight
18 Feb - 11:15:30 10° W 11:23:10 28° SW 11:31:05 10° S daylight
19 Feb - 02:37:57 10° S 02:43:44 19° SE 02:49:33 10° E visible
19 Feb - 04:37:55 10° SW 04:46:31 47° SSE 04:55:22 10° E visible
19 Feb - 06:41:14 10° WSW 06:50:26 68° S 06:59:56 10° E daylight
19 Feb - 08:45:28 10° W 08:54:36 58° SSW 09:04:06 10° SE daylight
19 Feb - 10:50:12 10° W 10:58:04 30° SW 11:06:09 10° SSE daylight
20 Feb - 02:13:24 10° SSE 02:18:42 17° SE 02:24:01 10° E visible
20 Feb - 04:12:52 10° SW 04:21:23 44° SSE 04:30:06 10° E visible
20 Feb - 06:16:05 10° WSW 06:25:13 67° S 06:34:42 10° E visible
20 Feb - 08:20:16 10° W 08:29:25 60° SSW 08:38:54 10° ESE daylight
20 Feb - 10:24:55 10° W 10:32:57 32° SW 10:41:12 10° SSE daylight
21 Feb - 01:48:56 10° SSE 01:53:39 15° SE 01:58:23 10° E visible
21 Feb - 03:47:51 10° SW 03:56:15 42° SSE 04:04:50 10° E visible
21 Feb - 05:50:55 10° WSW 06:00:02 67° S 06:09:27 10° E visible
21 Feb - 07:55:05 10° W 08:04:13 62° SSW 08:13:42 10° ESE daylight
21 Feb - 09:59:39 10° W 10:07:49 34° SW 10:16:15 10° SSE daylight
22 Feb - 01:24:37 10° SSE 01:28:38 14° SE 01:32:40 10° E visible
22 Feb - 03:22:51 10° SSW 03:31:08 40° SSE 03:39:34 10° E visible
22 Feb - 05:25:45 10° WSW 05:34:50 66° S 05:44:12 10° E visible
22 Feb - 07:29:53 10° W 07:39:02 63° SSW 07:48:31 10° ESE daylight
22 Feb - 09:34:24 10° W 09:42:41 36° SW 09:51:15 10° SSE daylight
22 Feb - 11:42:36 10° WSW 11:45:09 11° WSW 11:47:44 10° SW daylight
23 Feb - 01:00:31 10° SE 01:03:37 12° SE 01:06:43 10° ESE visible
23 Feb - 02:57:52 10° SSW 03:06:01 38° SE 03:14:18 10° E visible
23 Feb - 05:00:36 10° WSW 05:09:39 64° SSE 05:18:57 10° E visible
23 Feb - 07:04:42 10° W 07:13:50 64° SSW 07:23:18 10° ESE daylight
23 Feb - 09:09:10 10° W 09:17:33 38° SW 09:26:14 10° SSE daylight
23 Feb - 11:16:27 10° WSW 11:20:07 13° SW 11:23:49 10° SSW daylight
24 Feb - 00:36:59 10° SE 00:38:36 11° ESE 00:40:12 10° ESE visible
24 Feb - 02:32:54 10° SSW 02:40:54 35° SE 02:49:01 10° E visible
24 Feb - 04:35:27 10° WSW 04:44:27 63° SSE 04:53:43 10° E visible
24 Feb - 06:39:30 10° W 06:48:38 65° S 06:58:05 10° ESE daylight
24 Feb - 08:43:56 10° W 08:52:25 40° SSW 09:01:11 10° SSE daylight
24 Feb - 10:50:38 10° W 10:55:04 14° SW 10:59:35 10° SSW daylight
25 Feb - 02:07:58 10° SSW 02:15:48 33° SE 02:23:44 10° E visible
25 Feb - 04:10:18 10° WSW 04:19:17 61° SSE 04:28:29 10° E visible
25 Feb - 06:14:19 10° W 06:23:26 66° S 06:32:52 10° ESE visible
25 Feb - 08:18:42 10° W 08:27:16 42° SSW 08:36:08 10° SE daylight
25 Feb - 10:24:58 10° W 10:30:02 16° SW 10:35:10 10° SSW daylight
